Regional Weather Roundup
Issued by NWS Upton, NY

Current Version | Previous Version | Text Only | Print | Product List | Glossary On
Versions: 1 2 3 4 5 6 7 8 9 10 11 12 13 14 15 16 17 18 19 20 21 22 23 24 25 26 27 28 29 30 31 32 33 34 35 36 37 38 39 40 41 42 43 44 45 46 47 48 49
000
ASUS41 KOKX 020504
RWROKX

REGIONAL WEATHER ROUNDUP
NATIONAL WEATHER SERVICE NEW YORK NY
100 AM EDT WED SEP 02 2015

NOTE: "FAIR" INDICATES FEW OR NO CLOUDS BELOW 12,000 FEET WITH NO
SIGNIFICANT WEATHER AND/OR OBSTRUCTIONS TO VISIBILITY.

NYZ071-072-176-178-NJZ106-104-020600-
NEW YORK CITY METRO AREA


CITY           SKY/WX    TMP DP  RH WIND       PRES   REMARKS
CENTRAL PARK   CLEAR     77  60  55 SW3       30.08S
LAGUARDIA APRT CLEAR     77  67  71 S3        30.05S
KENNEDY INTL   CLEAR     74  70  87 S5        30.06S
NEWARK/LIBERTY CLEAR     76  67  73 CALM      30.05S
BRNX BOT. GARD   N/A     72  66  83 N1        30.07F
TETERBORO      CLEAR     74  65  73 CALM      30.04S
$$

NYZ177-179-078>081-020600-
LONG ISLAND NEW YORK

CITY           SKY/WX    TMP DP  RH WIND       PRES   REMARKS
FARMINGDALE    CLEAR     73  69  87 CALM      30.06S
ISLIP          CLEAR     72  69  90 SW3       30.04F
SHIRLEY        CLEAR     67  65  93 CALM      30.07S FOG
WESTHAMPTON    FOG       61  59  93 CALM      30.08S VSB 1/2
MONTAUK POINT    N/A     71  68  90 CALM      30.07S
$$

NYZ052-065-067-020600-
HUDSON VALLEY

CITY           SKY/WX    TMP DP  RH WIND       PRES   REMARKS
WHITE PLAINS   CLEAR     69  65  86 CALM      30.06S
NEWBURGH       NOT AVBL
MONTGOMERY     CLEAR     64  62  93 CALM      30.06S
POUGHKEEPSIE   CLEAR     64  61  90 CALM      30.04S
ALBANY         CLEAR     69  64  84 CALM      30.04S
$$

NJZ001-105-106-008-010-013-015-019>022-104-020600-
NEW JERSEY

CITY           SKY/WX    TMP DP  RH WIND       PRES   REMARKS
NEWARK/LIBERTY CLEAR     76  67  73 CALM      30.05S
TETERBORO      CLEAR     74  65  73 CALM      30.04S
CALDWELL       CLEAR     70  63  78 CALM      30.06F
MORRISTOWN     CLEAR     63  59  88 CALM      30.06S FOG
SOMERVILLE     CLEAR     67  64  90 CALM      30.04F
SUSSEX         CLEAR     63  60  90 CALM      30.07S
ANDOVER          N/A     64  63  96 CALM      30.08S
TRENTON        CLEAR     73  66  78 CALM      30.05F
MILLVILLE      CLEAR     72  70  93 CALM      30.05S FOG
ATLANTIC CITY  CLEAR     72  70  93 CALM      30.05S FOG
WRIGHTSTOWN    CLEAR     68  67  99 E2        30.03F
TOMS RIVER     CLEAR     66  63  88 CALM      30.06S
BELMAR         CLEAR     72  64  78 CALM      30.06S
$$

PAZ047>061-062-071-020600-
EASTERN PENNSYLVANIA

CITY           SKY/WX    TMP DP  RH WIND       PRES   REMARKS
PHILADELPHIA   PTCLDY    76  71  85 CALM      30.05S
ALLENTOWN      CLEAR     68  64  87 N5        30.06S
SCRANTON       CLEAR     68  61  78 E6        30.08S
$$

CTZ002-004>006-009-010-012-RIZ004-006-007-MAZ004-011-015-020600-
SOUTHERN NEW ENGLAND
 IN CT

CITY           SKY/WX    TMP DP  RH WIND       PRES   REMARKS
BRADLEY INTL   CLEAR     68  62  81 S5        30.04S
HARTFORD       CLEAR     69  65  86 S6        30.04S
DANBURY        CLEAR     64  61  90 CALM      30.08S
WTRBRY/OXFORD  CLEAR     66  57  72 CALM      30.09S
BRIDGEPORT     CLEAR     75  66  73 SW5       30.06S
MERIDEN        CLEAR     65  62  90 CALM      30.06S
NEW HAVEN      CLEAR     68  65  90 CALM      30.06S
CHESTER        NOT AVBL
GROTON         CLEAR     65  65 100 CALM      30.05F FOG
WILLIMANTIC    CLEAR     64  60  87 CALM      30.06S

 IN RI

CITY           SKY/WX    TMP DP  RH WIND       PRES   REMARKS
PROVIDENCE     CLEAR     67  64  90 SW3       30.06S
BLOCK ISLAND   CLEAR     70  68  94 S6        30.06F
WESTERLY       CLEAR     63  61  93 CALM      30.06F FOG

 IN MA

CITY           SKY/WX    TMP DP  RH WIND       PRES   REMARKS
BOSTON         CLEAR     70  61  73 SW7       30.04S
WORCESTER      CLEAR     64  60  87 W9        30.07F
WESTFIELD      CLEAR     63  61  93 CALM      30.05S
PROVINCETOWN     N/A     66  61  82 SW8       30.06R
NANTUCKET      CLEAR     63  60  90 S5        30.06S
$$

ANZ330-335-338-340-345-350-353-355-020600-
COASTAL MARINE OBSERVATIONS


STATION/POSITION TIME  SKY/WX   TEMP    WIND        PRES    VSBY  WAVE
                                AIR SEA DIR/SP/G                  HT/PER
                 (UTC)          (F)     (DEG/KT/KT) (MB)    (MI)  (FT/S)
NY HARB ENTRANCE 0350            76 77  170/  6/  6 1017.4          2/ 8
4S FIRE IS       NOT AVBL
20S FIRE ISLAND  0350            74 75  200/  6/  6 1017.7          2/ 8
GREAT SOUTH BAY  0400            75 79  230/  6/  6   N/A
23SW MTP         0450            73 72  180/  4/  4 1017.6          2/ 8
HUDSON CANYON    NOT AVBL
KINGS POINT      0400            74 74  180/  4/  5 1016.9
EXECUTION ROCKS  0400            74     180/  4/  6   N/A
CENTRAL LI SOUND NOT AVBL
EASTERN LI SOUND 0400            71 71   CALM  /  2   N/A
ROBBINS REEF     0400            75     170/  4/  4 1016.6
$$


>>>>>>>>>>>>>>>>>>>>>>>>>>>> KEY <<<<<<<<<<<<<<<<<<<<<<<<<<<
>                                                          <
>     SKY/WX - SKY CONDITION/PRESENT WEATHER               <
>     TMP    - TEMPERATURE IN FAHRENHEIT                   <
>     DP     - DEWPOINT IN FAHRENHEIT                      <
>     RH     - RELATIVE HUMIDITY IN PERCENT                <
>     WIND   - DIRECTION AND SPEED IN MPH                  <
>     PRES   - MEAN SEA LEVEL PRESSURE IN INCHES OF HG     <
>     WCI    - WIND CHILL INDEX                            <
>     VSB    - VISIBILITY IN MILES                         <
>     HX     - HEAT INDEX                                  <
>     TC     - TEMPERATURE IN CELSIUS                      <
>     VRB    - VARIABLE WIND DIRECTION                     <
>                                                          <
>>>>>>>>>>>>>>>>>>>>>>>>>>>> KEY <<<<<<<<<<<<<<<<<<<<<<<<<<<





USA.gov is the U.S. government's official web portal to all federal, state and local government web resources and services.